Regional Weather Roundup
Issued by NWS Memphis, TN

Home | Current Version | Previous Version | Text Only | Print | Product List | Glossary On
Versions: 1 2 3 4 5 6 7 8 9 10 11 12 13 14 15 16 17 18 19 20 21 22 23 24 25 26 27 28 29 30 31 32 33 34 35 36 37 38 39 40 41 42 43 44 45 46 47 48 49 50
000
ASUS44 KMEG 110710
RWRMEG
MEMPHIS CWA HOURLY WEATHER ROUNDUP
NATIONAL WEATHER SERVICE MEMPHIS TN
100 AM CST MON DEC 11 2017

...WEST TENNESSEE...

CITY           SKY/WX    TMP DP  RH WIND       PRES   REMARKS
MEMPHIS INTL   CLEAR     42  31  64 CALM      30.18S
NWS MEMPHIS      N/A     36 N/A N/A MISG        N/A
JACKSON        CLEAR     40  29  64 SW3       30.17S
COVINGTON      CLEAR     34  28  80 CALM      30.17F
SOMERVILLE     CLEAR     39  30  70 CALM      30.16S
BOLIVAR        CLEAR     41  30  65 CALM      30.16F
LEXINGTON      CLEAR     32  27  80 CALM      30.17R
SAVANNAH       CLEAR     32  28  86 CALM      30.17F
DYERSBURG      CLEAR     38  30  73 CALM      30.17F
UNION CITY     CLEAR     32  27  80 CALM      30.15F
PARIS          CLEAR     36  27  69 CALM      30.15S
HUNTINGDON     CLEAR     36  28  75 CALM      30.15S


...EASTERN ARKANSAS...

CITY           SKY/WX    TMP DP  RH WIND       PRES   REMARKS
JONESBORO      CLEAR     38  30  73 CALM      30.17S
WEST MEMPHIS   CLEAR     35  32  88 CALM      30.18S
BATESVILLE     CLEAR     41  25  53 W3        30.19S
NEWPORT        CLEAR     39  29  67 SW6       30.19S WCI  35
WALNUT RIDGE   CLEAR     35  26  69 SW7       30.17F WCI  29
BLYTHEVILLE    CLEAR     35  32  88 SW3       30.17
SEARCY         CLEAR     36  29  75 S3        30.20S
STUTTGART      CLEAR     38  31  76 SW6       30.20F WCI  33
PINE BLUFF     PTCLDY    43  29  57 SW8       30.22S
MONTICELLO     PTCLDY    44  29  55 W5        30.23S


...NORTH MISSISSIPPI...

CITY           SKY/WX    TMP DP  RH WIND       PRES   REMARKS
TUPELO         CLEAR     33  26  75 CALM      30.19F
BATESVILLE     PTCLDY    35  29  79 W3        30.22R
TUNICA           N/A    N/A N/A N/A CALM      30.21S
CLARKSDALE     PTCLDY    39  32  75 CALM      30.22R
CORINTH        CLEAR     32  27  80 SE5       30.17F WCI  27
GREENWOOD      CLEAR     40  30  67 SW6       30.23F
COLUMBUS       CLEAR     31  28  86 CALM      30.21F
STARKVILLE     PTCLDY    32  28  86 SW3       30.23F
GOLDEN TRIANGL PTCLDY    34  27  75 S5        30.22F WCI  30


...SOUTHEAST MISSOURI...

CITY           SKY/WX    TMP DP  RH WIND       PRES   REMARKS
KENNETT        CLEAR     36  32  87 CALM      30.15F
MALDEN         CLEAR     37  30  75 S3        30.16F
WEST PLAINS    CLEAR     36  23  59 W5        30.15F WCI  32
POPLAR BLUFF   CLEAR     29  26  89 CALM      30.15F
CAPE GIRARDEAU CLEAR     27  25  92 CALM      30.15F


...NORTHWEST ALABAMA...

CITY           SKY/WX    TMP DP  RH WIND       PRES   REMARKS
MUSCLE SHOALS  CLEAR     38  26  62 W5        30.19F WCI  34


...MIDDLE TENNESSEE...

CITY           SKY/WX    TMP DP  RH WIND       PRES   REMARKS
NASHVILLE      CLEAR     39  25  57 W3        30.17S
CLARKSVILLE    CLEAR     39  24  55 NW3       30.16S
COLUMBIA       CLEAR     37  27  65 VRB5G16   30.15S WCI  34


...WESTERN KENTUCKY...

CITY           SKY/WX    TMP DP  RH WIND       PRES   REMARKS
PADUCAH        CLEAR     29  24  82 CALM      30.14F
FORT CAMPBELL  CLEAR     35  24  64 CALM      30.15S


...CENTRAL ARKANSAS...

CITY           SKY/WX    TMP DP  RH WIND       PRES   REMARKS
LITTLE ROCK    CLEAR     38  31  76 CALM      30.21S


SKY/WX REPORTED AS FAIR MEANS FEW OR NO CLOUDS BELOW
12 THOUSAND FEET.




USA.gov is the U.S. government's official web portal to all federal, state and local government web resources and services.